GW4386 Weather Reports


time (UTC)temp
C
wind
direction
speed
KPH
gust
KPH
rain 1hr
cm
rain 24hr
cm
rain mn
cm
humidity
%
barometer
mb
20260506140104 16 146 0.0 4.8 0.00 0.18 0.15 76 1006.7
20260506135558 16 196 0.0 4.8 0.00 0.18 0.15 76 1006.8
20260506135058 16 230 1.6 4.8 0.00 0.18 0.15 76 1006.8
20260506134559 16 202 0.0 9.7 0.00 0.18 0.15 77 1006.9
20260506134059 16 200 3.2 12.9 0.00 0.18 0.15 76 1006.9
20260506133559 16 209 6.4 12.9 0.00 0.18 0.15 76 1007.0
20260506133102 16 215 6.4 16.1 0.00 0.18 0.15 76 1007.0
20260506132600 16 209 4.8 16.1 0.00 0.18 0.15 75 1006.8
20260506132102 16 205 1.6 12.9 0.00 0.18 0.15 75 1006.8
20260506131617 16 187 1.6 12.9 0.00 0.18 0.15 75 1006.8
20260506131100 16 197 6.4 12.9 0.00 0.18 0.15 74 1006.7
20260506130600 16 181 1.6 6.4 0.00 0.18 0.15 75 1006.7
20260506130059 16 205 1.6 6.4 0.00 0.18 0.15 74 1006.7
20260506125502 16 139 0.0 4.8 0.00 0.18 0.15 74 1006.7
20260506125059 16 182 0.0 6.4 0.00 0.18 0.15 74 1006.6
20260506124601 16 212 0.0 4.8 0.00 0.18 0.15 73 1006.6
20260506124101 17 215 0.0 8.0 0.00 0.18 0.15 73 1006.6
20260506123600 17 191 1.6 9.7 0.00 0.18 0.15 73 1006.6
20260506123101 17 217 1.6 12.9 0.00 0.18 0.15 73 1006.6
20260506123001 17 207 0.0 12.9 0.00 0.18 0.15 73 1006.6
20260506122559 17 216 6.4 12.9 0.00 0.18 0.15 72 1006.5
20260506122001 17 121 0.0 6.4 0.00 0.18 0.15 74 1006.6
20260506121602 16 93 0.0 11.3 0.00 0.18 0.15 77 1006.6
20260506121100 16 184 4.8 11.3 0.00 0.18 0.15 77 1006.9
20260506121001 16 188 3.2 11.3 0.00 0.18 0.15 78 1006.9
20260506120604 15 111 3.2 8.0 0.00 0.18 0.15 79 1006.9
20260506115558 15 310 0.0 4.8 0.00 0.18 0.15 80 1006.9
20260506115058 15 38 0.0 3.2 0.00 0.18 0.15 80 1006.9
20260506114559 15 57 0.0 3.2 0.00 0.18 0.15 80 1006.9
20260506114101 15 320 0.0 4.8 0.00 0.18 0.15 80 1006.9
20260506113559 15 182 0.0 4.8 0.00 0.18 0.15 80 1006.9
20260506113100 15 137 0.0 4.8 0.00 0.18 0.15 80 1007.0
20260506112559 15 227 0.0 4.8 0.00 0.18 0.15 80 1006.9
20260506112058 15 305 0.0 1.6 0.00 0.18 0.15 80 1006.8
20260506111559 15 65 0.0 4.8 0.00 0.18 0.15 79 1006.7
20260506111101 15 55 1.6 6.4 0.00 0.18 0.15 79 1006.6
20260506110559 15 41 0.0 6.4 0.00 0.18 0.15 80 1006.6
20260506110059 15 310 0.0 6.4 0.00 0.18 0.15 81 1006.5
20260506105559 15 292 1.6 6.4 0.00 0.18 0.15 80 1006.5
20260506105104 15 319 1.6 6.4 0.00 0.18 0.15 80 1006.4
20260506104607 15 273 0.0 6.4 0.00 0.18 0.15 80 1006.5
20260506104101 15 216 0.0 4.8 0.00 0.18 0.15 78 1006.4
20260506103600 15 53 3.2 6.4 0.00 0.18 0.15 79 1006.4
20260506103100 15 36 3.2 6.4 0.00 0.18 0.15 79 1006.4
20260506102601 15 317 0.0 6.4 0.00 0.18 0.15 79 1006.4
20260506102059 15 40 0.0 3.2 0.00 0.18 0.15 79 1006.4
20260506101600 15 209 0.0 8.0 0.00 0.18 0.15 79 1006.5
20260506101058 15 91 0.0 8.0 0.00 0.18 0.15 79 1006.5
20260506100558 15 36 3.2 6.4 0.00 0.18 0.15 80 1006.5
20260506100503 15 78 3.2 9.7 0.00 0.18 0.15 80 1006.5
20260506100114 15 86 3.2 11.3 0.00 0.18 0.15 80 1006.6
20260506100003 15 61 3.2 11.3 0.00 0.18 0.15 80 1006.6
20260506095603 15 167 3.2 11.3 0.00 0.18 0.15 80 1006.6
20260506095502 15 142 3.2 11.3 0.00 0.18 0.15 80 1006.6
20260506095105 15 38 4.8 11.3 0.03 0.18 0.15 81 1006.4
20260506095000 15 55 4.8 11.3 0.03 0.18 0.15 81 1006.4
20260506094501 15 71 4.8 14.5 0.03 0.18 0.15 81 1006.4
20260506094059 15 59 6.4 14.5 0.03 0.18 0.15 84 1006.3
20260506093600 14 49 3.2 9.7 0.03 0.18 0.15 85 1006.3
20260506093100 14 54 4.8 9.7 0.03 0.18 0.15 85 1006.5
20260506093001 14 36 4.8 8.0 0.03 0.18 0.15 86 1006.5
20260506092600 13 336 3.2 8.0 0.03 0.18 0.15 86 1006.5
20260506092504 13 324 1.6 8.0 0.03 0.18 0.15 86 1006.5
20260506092059 13 55 3.2 8.0 0.03 0.18 0.15 86 1006.6
20260506091601 13 319 1.6 6.4 0.03 0.18 0.15 87 1006.6
20260506091100 13 23 1.6 4.8 0.03 0.18 0.15 87 1006.6
20260506090559 12 124 0.0 8.0 0.03 0.18 0.15 87 1006.5
20260506090101 12 338 0.0 14.5 0.03 0.18 0.15 86 1006.2
20260506085558 12 64 8.0 14.5 0.03 0.18 0.15 85 1006.0
20260506085059 12 51 4.8 16.1 0.00 0.15 0.15 84 1006.2
20260506084604 12 27 8.0 16.1 0.00 0.15 0.15 83 1006.3
20260506084100 12 29 6.4 9.7 0.00 0.15 0.15 83 1006.5
20260506083559 12 34 1.6 11.3 0.00 0.15 0.15 83 1006.5
20260506083100 12 32 4.8 11.3 0.00 0.15 0.15 82 1006.7
20260506082558 12 46 3.2 14.5 0.00 0.15 0.15 82 1006.7
20260506082059 12 53 6.4 14.5 0.00 0.15 0.15 82 1006.6
20260506081559 12 36 6.4 11.3 0.00 0.15 0.15 82 1006.5
20260506081058 12 72 3.2 19.3 0.00 0.15 0.15 82 1006.4
20260506080600 12 47 9.7 19.3 0.00 0.15 0.15 82 1006.3
20260506073059 12 103 8.0 24.1 0.00 0.15 0.15 84 1006.5
20260506072559 11 42 8.0 24.1 0.00 0.15 0.15 84 1006.3
20260506072100 11 70 11.3 20.9 0.00 0.15 0.15 84 1006.2
20260506071601 11 39 11.3 20.9 0.00 0.15 0.15 85 1006.4
20260506071102 11 49 12.9 22.5 0.00 0.15 0.15 85 1006.4
20260506070600 11 70 11.3 22.5 0.00 0.15 0.15 85 1006.3
20260506062059 10 17 9.7 22.5 0.00 0.15 0.15 86 1006.6
20260506061559 10 113 12.9 22.5 0.00 0.15 0.15 86 1006.7
20260506061059 10 49 6.4 22.5 0.00 0.15 0.15 86 1006.8
20260506060600 10 59 6.4 22.5 0.00 0.15 0.15 86 1006.7
20260506051100 9 49 11.3 24.1 0.00 0.15 0.15 88 1006.8
20260506050559 9 59 12.9 24.1 0.00 0.15 0.15 88 1007.0
20260506045058 9 49 9.7 19.3 0.00 0.15 0.15 87 1007.0
20260506044558 9 42 8.0 20.9 0.00 0.15 0.15 87 1007.1
20260506044058 9 69 6.4 24.1 0.00 0.15 0.15 87 1007.3
20260506043600 9 50 8.0 19.3 0.00 0.15 0.15 87 1007.4
20260506043059 9 29 6.4 19.3 0.00 0.15 0.15 87 1007.5
20260506042559 9 49 9.7 24.1 0.00 0.15 0.15 87 1007.6
20260506042101 9 53 14.5 24.1 0.00 0.15 0.15 87 1007.7
20260506041605 9 53 11.3 19.3 0.00 0.15 0.15 87 1007.7
20260506041058 9 48 9.7 25.7 0.00 0.15 0.15 87 1007.9
20260506040559 8 52 16.1 25.7 0.00 0.15 0.15 87 1007.9
20260506040110 8 30 11.3 19.3 0.00 0.15 0.15 87 1008.0
20260506035559 8 59 8.0 17.7 0.00 0.15 0.15 87 1008.0
20260506035059 8 70 9.7 17.7 0.00 0.15 0.15 87 1008.0
20260506034604 8 51 9.7 17.7 0.00 0.15 0.15 87 1008.0
20260506034059 8 51 9.7 17.7 0.00 0.15 0.15 86 1008.1
20260506033559 8 38 4.8 17.7 0.00 0.15 0.15 86 1008.3
20260506033059 8 55 6.4 24.1 0.00 0.15 0.15 86 1008.2
20260506032558 8 36 9.7 24.1 0.00 0.15 0.15 86 1008.2
20260506032058 8 36 9.7 16.1 0.00 0.15 0.15 86 1008.2
20260506031602 8 59 4.8 16.1 0.00 0.15 0.15 86 1008.3
20260506031102 8 44 8.0 17.7 0.00 0.15 0.15 86 1008.3
20260506030558 8 315 8.0 20.9 0.00 0.15 0.15 86 1008.4
20260506030116 8 26 9.7 20.9 0.00 0.15 0.15 86 1008.5
20260506025601 8 123 3.2 16.1 0.00 0.15 0.15 86 1008.5
20260506025058 8 360 3.2 16.1 0.00 0.15 0.15 86 1008.6
20260506024600 8 41 4.8 22.5 0.00 0.15 0.15 86 1008.5
20260506024059 8 30 11.3 22.5 0.00 0.15 0.15 86 1008.5
20260506023559 8 64 6.4 17.7 0.00 0.15 0.15 86 1008.6
20260506023059 8 338 4.8 16.1 0.00 0.15 0.15 86 1008.6
20260506022559 8 24 8.0 16.1 0.00 0.15 0.15 86 1008.8
20260506022059 8 338 3.2 16.1 0.00 0.15 0.15 86 1008.9
20260506021606 8 28 9.7 16.1 0.00 0.15 0.15 86 1008.9
20260506021059 8 342 6.4 17.7 0.00 0.15 0.15 86 1008.9
20260506020558 8 68 6.4 17.7 0.00 0.15 0.15 86 1009.0
20260506020058 8 13 4.8 20.9 0.00 0.15 0.15 86 1009.0
20260506020001 8 54 4.8 20.9 0.00 0.15 0.15 86 1009.0
20260506015559 8 51 9.7 19.3 0.00 0.15 0.15 86 1009.1
20260506015100 8 39 9.7 17.7 0.00 0.15 0.15 86 1009.1
20260506014612 8 55 4.8 17.7 0.00 0.15 0.15 86 1009.0
20260506014058 8 69 8.0 19.3 0.00 0.15 0.15 86 1009.0
20260506013559 8 55 9.7 19.3 0.00 0.15 0.15 86 1009.1
20260506013100 8 59 11.3 20.9 0.00 0.15 0.15 86 1009.1
20260506012559 8 41 8.0 25.7 0.00 0.15 0.15 86 1009.1
20260506012101 8 42 12.9 25.7 0.03 0.15 0.15 86 1009.1
20260506011558 8 36 11.3 19.3 0.03 0.15 0.15 86 1009.1
20260506011059 8 53 11.3 20.9 0.03 0.15 0.15 86 1009.2
20260506010558 8 47 8.0 20.9 0.03 0.15 0.15 86 1009.1
20260506010106 9 53 8.0 17.7 0.03 0.15 0.15 86 1009.2
20260506010001 9 34 8.0 19.3 0.03 0.15 0.15 86 1009.3
20260506005600 9 42 11.3 19.3 0.03 0.15 0.15 86 1009.2
20260506005058 9 64 6.4 17.7 0.03 0.15 0.15 86 1009.2
20260506004558 9 22 8.0 17.7 0.03 0.15 0.15 86 1009.2
20260506004058 9 45 8.0 17.7 0.03 0.15 0.15 86 1009.2
20260506003558 9 36 8.0 19.3 0.03 0.15 0.15 86 1009.1
20260506003058 9 36 8.0 19.3 0.03 0.15 0.15 87 1009.2
20260506002558 9 45 9.7 17.7 0.05 0.15 0.15 87 1009.3
20260506002059 9 351 8.0 24.1 0.05 0.15 0.13 87 1009.4
20260506001602 9 52 9.7 24.1 0.08 0.15 0.13 87 1009.4
20260506001057 9 344 9.7 19.3 0.13 0.15 0.13 87 1009.6
20260506000559 9 29 9.7 19.3 0.13 0.15 0.13 87 1009.7
20260506000104 9 47 6.4 20.9 0.13 0.15 0.13 87 1009.7
20260506000001 9 34 6.4 20.9 0.13 0.15 0.13 87 1009.8
20260505235559 9 73 8.0 20.9 0.13 0.15 0.13 87 1009.8
20260505235059 9 33 9.7 16.1 0.13 0.15 0.13 87 1009.8
20260505234601 9 32 8.0 22.5 0.13 0.15 0.13 87 1010.0
20260505234059 9 45 6.4 22.5 0.13 0.15 0.13 88 1010.0
20260505233558 9 38 8.0 17.7 0.13 0.15 0.13 88 1010.0
20260505233127 10 306 8.0 19.3 0.13 0.15 0.13 88 1009.9
20260505232558 10 347 9.7 19.3 0.10 0.13 0.10 88 1009.9
20260505232059 10 43 9.7 20.9 0.08 0.10 0.08 88 1010.0
20260505231559 10 49 8.0 20.9 0.05 0.05 0.05 88 1009.9
20260505231059 10 52 11.3 17.7 0.00 0.03 0.00 88 1010.0
20260505230558 10 69 8.0 20.9 0.00 0.03 0.00 88 1010.3
20260505230059 10 335 11.3 20.9 0.00 0.03 0.00 88 1010.0
20260505225601 10 30 9.7 17.7 0.00 0.03 0.00 88 1010.0
20260505225103 10 49 4.8 19.3 0.00 0.03 0.00 88 1010.0
20260505224559 10 59 9.7 19.3 0.00 0.03 0.00 88 1010.0
20260505224103 10 36 8.0 22.5 0.00 0.03 0.00 88 1010.0
20260505223600 10 53 8.0 22.5 0.00 0.03 0.00 88 1009.9
20260505223102 10 61 8.0 22.5 0.00 0.03 0.00 88 1009.9
20260505222559 10 73 11.3 22.5 0.00 0.03 0.00 88 1009.9
20260505222100 10 53 11.3 19.3 0.00 0.03 0.00 88 1009.9
20260505221604 10 36 8.0 19.3 0.00 0.03 0.00 88 1010.0
20260505221501 10 68 6.4 20.9 0.00 0.03 0.00 88 1010.1
20260505221104 10 338 9.7 20.9 0.00 0.03 0.00 88 1010.1
20260505220559 10 23 12.9 22.5 0.00 0.03 0.00 88 1010.1
20260505220059 10 38 9.7 22.5 0.00 0.03 0.00 88 1010.1
20260505215559 10 29 8.0 19.3 0.00 0.03 0.03 88 1010.2
20260505215101 10 36 6.4 20.9 0.00 0.03 0.03 88 1010.2
20260505214605 10 49 8.0 20.9 0.00 0.03 0.03 88 1010.1
20260505214100 10 340 8.0 17.7 0.00 0.03 0.03 88 1010.2
20260505213559 10 15 8.0 19.3 0.00 0.03 0.03 88 1010.1
20260505213118 10 38 9.7 19.3 0.00 0.03 0.03 88 1010.2
20260505212600 10 36 9.7 17.7 0.00 0.03 0.03 88 1010.2
20260505212100 10 38 4.8 17.7 0.00 0.03 0.03 88 1010.2
20260505211600 10 31 9.7 19.3 0.00 0.03 0.03 88 1010.2
20260505211101 10 328 8.0 19.3 0.00 0.03 0.03 88 1010.3
20260505210559 10 64 6.4 19.3 0.00 0.03 0.03 88 1010.2
20260505210107 10 26 9.7 19.3 0.00 0.03 0.03 88 1010.2
20260505210002 10 36 9.7 19.3 0.00 0.03 0.03 88 1010.3
20260505205601 10 52 8.0 20.9 0.00 0.03 0.03 88 1010.3
20260505205104 10 346 8.0 20.9 0.00 0.03 0.03 88 1010.3
20260505204601 10 30 4.8 19.3 0.00 0.03 0.03 88 1010.3
20260505204103 10 61 6.4 14.5 0.00 0.03 0.03 88 1010.5
20260505203503 10 329 6.4 16.1 0.00 0.03 0.03 88 1010.4
20260505203100 10 52 4.8 14.5 0.00 0.03 0.03 88 1010.4
20260505203004 10 28 6.4 14.5 0.00 0.03 0.03 88 1010.4
20260505202601 10 48 6.4 14.5 0.00 0.03 0.03 88 1010.4
20260505202100 10 69 3.2 12.9 0.00 0.03 0.03 87 1010.4
20260505201601 10 52 6.4 17.7 0.00 0.03 0.03 87 1010.3
20260505201100 10 44 9.7 16.1 0.00 0.03 0.03 87 1010.4
20260505200601 10 50 4.8 11.3 0.00 0.03 0.03 87 1010.4
20260505200003 10 27 3.2 14.5 0.00 0.03 0.03 88 1010.4
20260505195604 10 28 6.4 14.5 0.00 0.03 0.03 88 1010.4
20260505195104 10 50 6.4 14.5 0.00 0.03 0.03 87 1010.5
20260505194602 10 13 4.8 9.7 0.00 0.03 0.03 87 1010.5
20260505194501 10 34 6.4 9.7 0.00 0.03 0.03 87 1010.5
20260505194101 10 36 4.8 14.5 0.00 0.03 0.03 87 1010.5
20260505193600 10 63 4.8 16.1 0.00 0.03 0.03 87 1010.4
20260505193130 10 55 3.2 16.1 0.00 0.03 0.03 87 1010.4
20260505192501 10 53 4.8 9.7 0.00 0.03 0.03 87 1010.4
20260505192002 10 44 3.2 9.7 0.00 0.03 0.03 87 1010.3
20260505191607 10 44 3.2 9.7 0.00 0.03 0.03 87 1010.3
20260505191101 10 55 4.8 9.7 0.00 0.03 0.03 87 1010.3
20260505190600 10 61 4.8 11.3 0.00 0.03 0.03 87 1010.3
20260505190501 10 63 3.2 11.3 0.00 0.03 0.03 87 1010.3
20260505190100 10 36 4.8 11.3 0.00 0.03 0.03 87 1010.3
20260505185600 10 75 3.2 11.3 0.00 0.03 0.03 87 1010.4
20260505185100 10 36 4.8 11.3 0.00 0.03 0.03 87 1010.3
20260505184605 10 45 3.2 11.3 0.00 0.03 0.03 87 1010.3
20260505184100 11 45 3.2 14.5 0.00 0.03 0.03 87 1010.2
20260505183600 11 24 4.8 12.9 0.00 0.03 0.03 87 1010.3
20260505183059 11 30 4.8 12.9 0.00 0.03 0.03 87 1010.3
20260505182559 11 36 3.2 8.0 0.00 0.03 0.03 87 1010.4
20260505182059 11 51 3.2 16.1 0.00 0.03 0.03 87 1010.3
20260505181559 11 36 8.0 16.1 0.00 0.03 0.03 86 1010.3
20260505181100 11 71 4.8 16.1 0.00 0.03 0.03 86 1010.3
20260505180559 11 23 8.0 19.3 0.00 0.03 0.03 86 1010.2
20260505180105 11 19 11.3 22.5 0.00 0.03 0.03 85 1010.1
20260505175600 11 50 6.4 17.7 0.00 0.03 0.03 85 1010.0
20260505175101 11 41 6.4 20.9 0.00 0.03 0.03 85 1009.9
20260505174600 11 47 11.3 20.9 0.00 0.03 0.03 85 1009.9
20260505174502 11 55 11.3 20.9 0.00 0.03 0.03 84 1009.9
20260505174104 11 55 11.3 20.9 0.00 0.03 0.03 84 1009.9
20260505173501 12 87 11.3 27.4 0.00 0.03 0.03 84 1009.9
20260505173101 12 54 12.9 22.5 0.00 0.03 0.03 85 1009.9
20260505172501 12 47 8.0 19.3 0.00 0.03 0.03 85 1009.9
20260505172002 12 53 6.4 17.7 0.00 0.03 0.03 86 1009.9
20260505171601 12 70 6.4 17.7 0.00 0.03 0.03 86 1010.0
20260505171101 12 59 6.4 19.3 0.00 0.03 0.03 86 1009.9
20260505171004 12 53 8.0 19.3 0.00 0.03 0.03 86 1009.9
20260505170601 12 28 9.7 19.3 0.00 0.03 0.03 86 1009.9
20260505170100 12 38 4.8 14.5 0.00 0.03 0.03 85 1009.9
20260505170003 12 342 4.8 14.5 0.00 0.03 0.03 85 1009.9
20260505165600 12 66 3.2 16.1 0.00 0.03 0.03 85 1010.0
20260505165002 12 32 8.0 16.1 0.00 0.03 0.03 86 1009.9
20260505164600 12 52 6.4 16.1 0.00 0.03 0.03 85 1010.0
20260505164501 12 38 6.4 16.1 0.00 0.03 0.03 85 1010.0
20260505164100 12 41 4.8 9.7 0.00 0.03 0.03 85 1010.0
20260505163500 12 18 3.2 8.0 0.00 0.03 0.03 86 1010.0
20260505163001 12 20 3.2 14.5 0.00 0.03 0.03 85 1010.0
20260505162502 12 61 3.2 14.5 0.00 0.03 0.03 86 1010.0
20260505162101 12 53 4.8 12.9 0.00 0.03 0.03 86 1010.0
20260505161603 12 59 4.8 12.9 0.00 0.03 0.03 86 1010.0
20260505161502 12 57 4.8 12.9 0.00 0.03 0.03 86 1010.0
20260505161002 13 11 4.8 12.9 0.00 0.03 0.03 86 1010.0
20260505160501 13 28 3.2 12.9 0.00 0.03 0.03 86 1010.0
20260505153107 12 62 8.0 14.5 0.03 0.03 0.03 87 1010.2
20260505152559 12 42 4.8 17.7 0.03 0.03 0.03 87 1010.3
20260505152100 12 335 8.0 17.7 0.03 0.03 0.03 87 1010.3
20260505151603 12 342 6.4 17.7 0.03 0.03 0.03 87 1010.3
20260505151102 12 38 6.4 14.5 0.03 0.03 0.03 87 1010.3
20260505150559 12 43 8.0 14.5 0.03 0.03 0.03 87 1010.5
20260505140501 14 12 6.4 17.7 0.00 0.00 0.00 82 1010.7